Weather Roundup
Issued by NWS Corpus Christi, TX

Home | Current Version | Previous Version | Text Only | Print | Product List | Glossary On
Versions: 1 2 3 4 5 6 7 8 9 10 11 12 13 14 15 16 17 18 19 20 21 22 23 24 25 26 27 28 29 30 31 32 33 34 35 36 37 38 39 40 41 42 43 44 45 46 47 48 49 50
000
ASUS44 KCRP 250310
HRRCRP

SOUTH TEXAS REGIONAL WEATHER ROUNDUP
NATIONAL WEATHER SERVICE CORPUS CHRISTI TX
1000 PM CDT SUN MAY 24 2015


TXZ229>244-250400-
...CORPUS CHRISTI AREA OBSERVATIONS...

CITY           SKY/WX    TMP DP  RH WIND       PRES   REMARKS
CORPUS CHRISTI PTCLDY    78  72  81 SE15      29.87R
NAS CORPUS CHR NOT AVBL
ROCKPORT       CLEAR     79  71  76 SE12      29.88R
ALICE          CLEAR     77  72  84 SE10      29.86R
FALFURRIAS     CLOUDY    80  72  74 SE10      29.86R
$$

...VICTORIA AREA OBSERVATIONS...

CITY           SKY/WX    TMP DP  RH WIND       PRES   REMARKS
VICTORIA       PTCLDY    75  72  90 SE10      29.91R
BEEVILLE       MOCLDY    76  72  88 SE9       29.88R
PLEASANTON     CLEAR     78  73  85 SE10      29.87R
SAN ANTONIO    MOCLDY    77  70  79 SE9       29.88R
$$

...LAREDO AREA OBSERVATIONS...

CITY           SKY/WX    TMP DP  RH WIND       PRES   REMARKS
LAREDO         CLEAR     81  74  79 SE9       29.84R
COTULLA        PTCLDY    81  71  71 SE10      29.83R
DEL RIO        CLEAR     77  65  66 E9        29.80R
MCALLEN        CLEAR     80  71  74 S9        29.87R
HEBBRONVILLE     N/A     78  72  80 SE10      29.87R
$$

...OTHER TEXAS OBSERVATIONS...

CITY           SKY/WX    TMP DP  RH WIND       PRES   REMARKS
BROWNSVILLE    CLEAR     78  73  84 SE13      29.88R
HOUSTON        PTCLDY    74  70  87 S5        29.93R
COL. STATION   CLEAR     74  68  81 SE7       29.90R
AUSTIN         PTCLDY    74  70  87 SE9       29.87R
WACO           CLEAR     74  68  81 SE10      29.87R
FORT WORTH     PTCLDY    68  67  96 SE6       29.87R
WICHITA FALLS  CLEAR     70  65  84 SE13      29.82R
LUBBOCK        PTCLDY    70  37  29 S10       29.82R
EL PASO        PTCLDY    78  16   9 W14       29.84R
$$

...MARINE OBSERVATIONS...

STATION/POSITION TIME  SKY/WX   TEMP    WIND        PRES    VSBY  WAVE   SWELL
                                AIR SEA DIR/SP/G                  HT/PER HT/PER
                 (UTC)          (F)     (DEG/KT/KT) (MB)    (MI)  (FT/S) (FT/S)
PORT ARANSAS     0300            80 80  140/ 19/ 22 1012.5R
BUOY 90 E PORT A 0250            78 79  160/ 16/ 17 1013.5R         4/ 7   2/ 7
BUOY 45 SE BAFFI 0250            80 80  150/ 16/ 17 1012.0R         5/ 7   3/11
BUOY 200 E PT IS 0250            80 81  130/ 17/ 19 1013.6R         5/ 7
BUOY 15 E GALVES 0250            78 79  170/ 12/ 14 1013.4R         4/ 6   2/ 6
$$



USA.gov is the U.S. government's official web portal to all federal, state and local government web resources and services.